Indianapolis, IN

5:40 AM EDT on August 19, 2019 (GMT -0400)
Indianapolis Terry

Weather History for KTYQ - May, 2019

Change the Weather History Date:

Saturday, May 18, 2019

  Actual Average (KEYE) Record (KEYE)
Temperature  
Mean Temperature 72 °F -  
Max Temperature 84 °F 69 °F 86 °F (2017)
Min Temperature 60 °F 51 °F 36 °F (2014)
Cooling Degree Days 7    
Growing Degree Days 22 (Base 50)    
Moisture  
Dew Point 61 °F    
Average Humidity 72    
Maximum Humidity 100    
Minimum Humidity 42    
Precipitation  
Precipitation 0.00 in - - ()
Sea Level Pressure  
Sea Level Pressure 29.89 in    
Wind  
Wind Speed 7 mph ()    
Max Wind Speed 20 mph    
Max Gust Speed 29 mph    
Visibility 10.0 miles    
Events      
Averages and records for this station are not official NWS values.
T = Trace of Precipitation, MM = Missing Value Source: Averaged Metar Reports

Daily Weather History Graph

Daily Weather History Graph

Search for Another Location

Airport or City:

Astronomy

May. 18, 2019 Rise Set
Actual Time 6:27 AM EDT 8:56 PM EDT
Civil Twilight 5:56 AM EDT 9:27 PM EDT
Nautical Twilight 5:17 AM EDT 10:05 PM EDT
Astronomical Twilight 4:35 AM EDT 10:48 PM EDT
Moon 8:51 PM EDT (5/18) 6:33 AM EDT (5/18)
Length of Visible Light 15h 30m
Length of Day
14h 28m
Full, 100% of the Moon is Illuminated
May 18
Full
May 18
Full
May 26
Last Quarter
Jun 3
New
Jun 10
First Quarter

Hourly Weather History & Observations

Time (EDT) Temp. Heat Index Dew Point Humidity Pressure Visibility Wind Dir Wind Speed Gust Speed Precip Events Conditions
12:15 AM 64.8 °F - 63.5 °F 96% 29.91 in 10.0 mi Calm Calm - N/A   Clear
12:35 AM 64.8 °F - 63.1 °F 94% 29.91 in 10.0 mi Calm Calm - N/A   Clear
12:55 AM 64.8 °F - 63.3 °F 95% 29.91 in 10.0 mi ESE 3.5 mph - N/A   Clear
1:15 AM 63.7 °F - 63.5 °F 99% 29.91 in 10.0 mi Calm Calm - N/A   Clear
1:35 AM 63.7 °F - 63.5 °F 99% 29.91 in 10.0 mi ESE 3.5 mph - N/A   Clear
1:55 AM 64.6 °F - 63.9 °F 98% 29.91 in 10.0 mi Calm Calm - N/A   Clear
2:15 AM 63.7 °F - 63.7 °F 100% 29.91 in 10.0 mi Calm Calm - N/A   Clear
2:35 AM 61.9 °F - 61.9 °F 100% 29.91 in 10.0 mi Calm Calm - N/A   Clear
2:55 AM 61.3 °F - 61.3 °F 100% 29.90 in 10.0 mi Calm Calm - N/A   Clear
3:15 AM 60.6 °F - 60.6 °F 100% 29.90 in 10.0 mi South 4.6 mph - N/A   Clear
3:35 AM 61.7 °F - 61.7 °F 100% 29.90 in 10.0 mi South 5.8 mph - N/A   Clear
3:55 AM 62.1 °F - 62.1 °F 100% 29.89 in 10.0 mi South 5.8 mph - N/A   Clear
4:15 AM 62.1 °F - 62.1 °F 100% 29.89 in 10.0 mi SSW 5.8 mph - N/A   Clear
4:35 AM 62.1 °F - 62.1 °F 100% 29.90 in 10.0 mi SSW 4.6 mph - N/A   Clear
4:55 AM 61.9 °F - 61.9 °F 100% 29.90 in 10.0 mi SSW 4.6 mph - N/A   Clear
5:15 AM 62.4 °F - 61.9 °F 98% 29.90 in 10.0 mi SW 4.6 mph - N/A   Clear
5:35 AM 62.1 °F - 61.7 °F 99% 29.90 in 10.0 mi SSW 4.6 mph - N/A   Clear
5:55 AM 61.7 °F - 61.7 °F 100% 29.91 in 10.0 mi SSW 6.9 mph - N/A   Clear
6:15 AM 61.7 °F - 61.7 °F 100% 29.91 in 10.0 mi SSW 5.8 mph - N/A   Clear
6:35 AM 62.1 °F - 62.1 °F 100% 29.91 in 10.0 mi SSW 5.8 mph - N/A   Clear
6:55 AM 61.9 °F - 61.9 °F 100% 29.92 in 10.0 mi SSW 5.8 mph - N/A   Clear
7:15 AM 62.6 °F - 62.6 °F 100% 29.92 in 10.0 mi SSW 5.8 mph - N/A   Clear
7:35 AM 63.7 °F - 63.5 °F 99% 29.92 in 10.0 mi South 5.8 mph - N/A   Clear
7:55 AM 64.8 °F - 64.2 °F 98% 29.93 in 10.0 mi South 4.6 mph - N/A   Clear
8:15 AM 66.6 °F - 64.6 °F 93% 29.94 in 10.0 mi SSW 5.8 mph - N/A   Clear
8:35 AM 68.5 °F - 64.4 °F 87% 29.94 in 10.0 mi SW 9.2 mph - N/A   Clear
8:55 AM 70.0 °F - 64.9 °F 84% 29.94 in 10.0 mi SW 9.2 mph - N/A   Clear
9:15 AM 71.2 °F - 65.1 °F 81% 29.94 in 10.0 mi SW 10.4 mph - N/A   Clear
9:35 AM 72.5 °F - 65.7 °F 79% 29.94 in 10.0 mi SW 9.2 mph - N/A   Clear
9:55 AM 73.8 °F - 66.0 °F 77% 29.94 in 10.0 mi SW 12.7 mph 17.3 mph N/A   Clear
10:15 AM 74.8 °F - 65.3 °F 72% 29.94 in 10.0 mi SW 9.2 mph - N/A   Clear
10:35 AM 75.6 °F - 65.7 °F 71% 29.94 in 10.0 mi SW 11.5 mph 16.1 mph N/A   Clear
10:55 AM 77.0 °F - 65.8 °F 68% 29.92 in 10.0 mi SW 12.7 mph - N/A   Clear
11:15 AM 77.4 °F - 64.0 °F 63% 29.92 in 10.0 mi SW 13.8 mph - N/A   Clear
11:35 AM 78.4 °F - 64.0 °F 61% 29.91 in 10.0 mi WSW 16.1 mph - N/A   Clear
11:55 AM 79.3 °F - 62.1 °F 55% 29.90 in 10.0 mi SW 15.0 mph 25.3 mph N/A   Clear
12:15 PM 79.9 °F - 63.3 °F 57% 29.90 in 10.0 mi SSW 12.7 mph - N/A   Scattered Clouds
12:35 PM 80.2 °F 81.2 °F 61.0 °F 52% 29.90 in 10.0 mi SW 17.3 mph 23.0 mph N/A   Clear
12:55 PM 81.0 °F 81.5 °F 59.7 °F 48% 29.90 in 10.0 mi SW 19.6 mph 25.3 mph N/A   Clear
1:15 PM 81.3 °F 82.3 °F 62.1 °F 52% 29.90 in 10.0 mi WSW 15.0 mph 23.0 mph N/A   Clear
1:35 PM 81.5 °F 82.1 °F 60.8 °F 49% 29.90 in 10.0 mi SW 16.1 mph 26.5 mph N/A   Scattered Clouds
1:55 PM 81.9 °F 82.6 °F 61.3 °F 50% 29.89 in 10.0 mi SW 17.3 mph 23.0 mph N/A   Scattered Clouds
2:15 PM 82.4 °F 82.6 °F 59.9 °F 46% 29.89 in 10.0 mi SSW 16.1 mph 28.8 mph N/A   Scattered Clouds
2:35 PM 82.6 °F 82.8 °F 59.9 °F 46% 29.88 in 10.0 mi SSW 17.3 mph 26.5 mph N/A   Scattered Clouds
2:55 PM 82.8 °F 82.7 °F 58.8 °F 44% 29.87 in 10.0 mi SSW 12.7 mph 25.3 mph N/A   Clear
3:15 PM 83.3 °F 82.9 °F 57.9 °F 42% 29.87 in 10.0 mi SSW 17.3 mph 23.0 mph N/A   Scattered Clouds
3:35 PM 83.3 °F 83.1 °F 58.6 °F 43% 29.86 in 10.0 mi WSW 19.6 mph 23.0 mph N/A   Clear
3:55 PM 83.7 °F 83.3 °F 58.3 °F 42% 29.86 in 10.0 mi SSW 15.0 mph 25.3 mph N/A   Scattered Clouds
4:15 PM 84.4 °F 84.2 °F 59.7 °F 43% 29.86 in 10.0 mi SSW 15.0 mph 19.6 mph N/A   Scattered Clouds
4:35 PM 82.8 °F 82.4 °F 57.4 °F 42% 29.86 in 10.0 mi SW 19.6 mph 26.5 mph N/A   Scattered Clouds
4:55 PM 83.3 °F 82.9 °F 58.1 °F 42% 29.86 in 10.0 mi SW 16.1 mph 25.3 mph N/A   Scattered Clouds
5:15 PM 82.6 °F 82.5 °F 58.8 °F 44% 29.86 in 10.0 mi SSW 17.3 mph 23.0 mph N/A   Clear
5:35 PM 83.7 °F 83.3 °F 58.3 °F 42% 29.86 in 10.0 mi SSW 19.6 mph 25.3 mph N/A   Scattered Clouds
5:55 PM 83.5 °F 83.1 °F 58.1 °F 42% 29.86 in 10.0 mi SSW 15.0 mph 20.7 mph N/A   Scattered Clouds
6:15 PM 83.3 °F 83.1 °F 58.8 °F 43% 29.86 in 10.0 mi SSW 16.1 mph 24.2 mph N/A   Scattered Clouds
6:35 PM 81.9 °F 82.1 °F 59.4 °F 46% 29.86 in 10.0 mi SSW 11.5 mph 18.4 mph N/A   Clear
6:55 PM 81.7 °F 81.6 °F 57.9 °F 44% 29.85 in 10.0 mi SSW 18.4 mph 23.0 mph N/A   Clear
7:15 PM 81.9 °F 81.7 °F 57.0 °F 43% 29.84 in 10.0 mi SW 10.4 mph - N/A   Clear
7:35 PM 80.4 °F 81.0 °F 58.8 °F 48% 29.84 in 10.0 mi SSW 9.2 mph - N/A   Scattered Clouds
7:55 PM 79.5 °F - 58.3 °F 48% 29.83 in 10.0 mi SSW 11.5 mph - N/A   Scattered Clouds
8:15 PM 78.1 °F - 58.1 °F 50% 29.83 in 10.0 mi SSW 9.2 mph - N/A   Clear
8:35 PM 76.6 °F - 58.3 °F 53% 29.83 in 10.0 mi SSW 8.1 mph - N/A   Clear
8:55 PM 73.4 °F - 59.7 °F 62% 29.83 in 10.0 mi SSW 4.6 mph - N/A   Clear
9:15 PM 73.2 °F - 59.0 °F 61% 29.83 in 10.0 mi SSW 4.6 mph - N/A   Clear
9:35 PM 72.9 °F - 58.8 °F 61% 29.83 in 10.0 mi South 5.8 mph - N/A   Clear
9:55 PM 69.1 °F - 60.8 °F 75% 29.82 in 10.0 mi South 5.8 mph - N/A   Clear
10:15 PM 68.4 °F - 60.4 °F 76% 29.83 in 10.0 mi SSE 4.6 mph - N/A   Clear
10:35 PM 68.2 °F - 60.3 °F 76% 29.83 in 10.0 mi SSE 5.8 mph - N/A   Clear
10:55 PM 68.2 °F - 59.7 °F 74% 29.83 in 10.0 mi South 5.8 mph - N/A   Clear
11:15 PM 68.4 °F - 60.6 °F 76% 29.84 in 10.0 mi South 5.8 mph - N/A   Scattered Clouds
11:35 PM 68.0 °F - 61.0 °F 78% 29.84 in 10.0 mi South 6.9 mph - N/A   Scattered Clouds
11:55 PM 68.0 °F - 61.0 °F 78% 29.84 in 10.0 mi South 6.9 mph - N/A   Scattered Clouds